SCP
0 0 0 0 0 0 0 0 0 0 0 0 0 0 0 0 0 0 0 0 0 0 0 0 0 0 0 0 0 0 0 0 0 0 0 0 0 0 0 0 0 0 0 0
0 0 0 0 0 0 0 0 0 0 0 0 0 0 0 0 0 0 0 0 0 0 0 0 0 0 0 0 0 0 0 0 0 0 0 0 0 0 0 0 0 0 0 0
0 0 0 0 0 0 0 0 0 0 0 0 0 0 0 0 0 0 0 0 0 0 0 0 0 0 0 0 0 0 0 0 0 0 0 0 0 0 0 0 0 0 0 0
0 0 0 0 0 0 0 0 0 0 0 0 0 0 0 0 0 0 0 0 0 0 0 0 0 0 0 0 0 0 0 0 0 0 0 0 0 0 0 0 0 0 0 0
0 0 0 0 0 0 0 0 0 0 0 0 0 0 0 0 0 0 0 0 0 0 0 0 0 0 0 0 0 0 0 0 0 0 0 0 0 0 0 0 0 0 0 0
0 0 0 0 0 0 0 0 0 0 0 0 0 0 0 0 0 0 0 0 0 0 0 0 0 0 0 0 0 0 0 0 0 0 0 0 0 0 0 0 0 0 0 0
0 0 0 0 0 0 0 0 0 0 0 0 0 0 0 0 0 0 0 0 0 0 0 0 0 0 0 0 0 0 0 0 0 0 0 0 0 0 0 0 0 0 0 0
0 0 0 0 0 0 0 0 0 0 0 0 0 0 0 0 0 0 0 0 0 0 0 0 0 0 0 0 0 0 0 0 0 0 0 0 0 0 0 0 0 0 0 0
0 0 0 0 0 0 0 0 0 0 0 0 0 0 0 0 0 0 0 0 0 0 0 0 0 0 0 0 0 0 0 0 0 0 0 0 0 0 0 0 0 0 0 0
0 0 0 0 0 0 0 0 0 0 0 0 0 0 0 0 0 0 0 0 0 0 0 0 0 0 0 0 0 0 0 0 0 0 0 0 0 0 0 0 0 0 0 0
0 0 0 0 0 0 0 0 0 0 0 0 0 0 0 0 0 0 0 0 0 0 0 0 0 0 0 0 0 0 0 0 0 0 0 0 0 0 0 0 0 0 0 0
0 0 0 0 0 0 0 0 0 0 0 0 0 0 0 0 0 0 0 0 0 0 0 0 0 0 0 0 0 0 0 0 0 0 0 0 0 0 0 0 0 0 0 0
0 0 0 0 0 0 0 0 0 0 0 0 0 0 0 0 0 0 0 0 0 0 0 0 0 0 0 0 0 0 0 0 0 0 0 0 0 0 0 0 0 0 0 0
0 0 0 0 0 0 0 0 0 0 0 0 0 0 0 0 0 0 0 0 0 0 0 0 0 0 0 0 0 0 0 0 0 0 0 0 0 0 0 0 0 0 0 0
0 0 0 0 -0 0 -0 -0 0 0 0 0 0 0 0 0 0 0 0 0 0 0 0 0 0 0 0 0 0 0 0 0 0 0 0 0 0 0 0 0 0 0 0 0
0 0 -0 -0 -0 -0 -0 0 0 0 0 0 0 0 0 0 0 0 0 0 0 0 0 0 0 0 0 0 0 0 0 0 0 0 0 0 0 0 0 0 0 0 0 0
0 0 -0 -0 -0 -0 -0 0 0 0 0 0 0 0 0 0 0 0 0 0 0 0 0 0 0 0 0 0 0 0 0 0 0 0 0 0 0 0 0 0 0 0 0 0
0 -0 -0 -0 -0 -0 -0 0 0 0 0 0 0 0 0 0 0 0 0 0 0 0 0 0 0 0 0 0 0 0 0 0 0 0 0 0 0 0 0 0 0 0 0 0
0 -0 -0 -0 -0 -0 -0 0 0 0 0 0 0 0 0 0 0 0 0 0 0 0 0 0 0 0 0 0 0 0 0 0 0 0 0 0 0 0 0 0 0 0 0 0
0 0 -0 -0 -0 -0 0 0 0 0 0 0 0 0 0 0 0 0 0 0 0 0 0 0 0 0 0 0 0 0 0 0 0 0 0 0 0 0 0 0 0 0 0 0
-0 -0 -0 -0 0 0 0 0 0 0 0 0 0 0 0 0 0 0 0 0 0 0 0 0 0 0 0 0 0 0 0 0 0 0 0 0 0 0 0 0 0 0 0 0
0 0 0 0 0 0 0 0 0 0 0 0 0 0 0 0 0 0 0 0 0 0 0 0 0 0 0 0 0 0 0 0 0 0 0 0 0 0 0 0 0 0 0 0
0 0 0 0 0 0 0 0 0 0 0 0 0 0 0 0 0 0 0 0 0 0 0 0 0 0 0 0 0 0 0 0 0 0 0 0 0 0 0 0 0 0 0 0
0 0 0 0 0 0 0 0 0 0 0 0 0 0 0 0 0 0 0 0 0 0 0 0 0 0 0 0 0 0 0 0 0 0 0 0 0 0 0 0 0 0 0 0
0 0 0 0 0 0 0 0 0 0 0 0 0 0 0 0 0 0 0 0 0 0 0 0 0 0 0 0 0 0 0 0 0 0 0 0 0 0 0 0 0 0 0 0
-0 0 0 0 0 0 0 0 0 0 0 0 0 0 0 0 0 0 0 0 0 0 0 0 0 0 0 0 0 0 0 0 0 0 0 0 0 0 0 0 0 0 0 0
0 0 0 0 0 0 0 0 0 0 0 0 0 0 0 0 0 0 0 0 0 0 0 0 0 0 0 0 0 0 0 0 0 0 0 0 0 0 0 0 0 0 0 0
Wind_Speed_500mb
36 40 39 24 28 38 45 54 27 43 48 59 37 32 36 41 45 52 55 54 49 41 31 21 15 8 7 15 22 26 22 21 22 25 25 28 30 31 34 35 35 36 38 37
38 51 48 44 45 53 47 49 46 45 54 39 12 18 33 37 46 53 55 52 47 39 31 24 17 9 10 15 19 20 18 20 22 25 26 29 30 32 34 34 36 37 38 39
14 34 31 27 62 52 57 55 41 39 51 30 18 22 30 34 45 53 55 52 46 38 30 22 15 6 6 12 16 15 16 18 20 24 26 29 30 32 35 35 36 37 39 38
9 11 14 23 17 48 52 44 40 34 25 17 19 16 16 26 40 48 52 50 43 36 28 19 10 6 6 10 13 12 14 16 20 24 26 28 31 33 34 36 37 39 41 38
8 15 18 30 21 25 27 53 50 47 37 22 28 26 14 19 37 48 51 45 38 31 25 16 8 2 3 7 8 10 14 17 21 23 27 28 32 34 34 36 38 40 42 41
13 11 16 15 7 31 13 33 25 43 29 26 34 16 12 34 46 51 47 42 37 29 21 13 6 0 3 4 7 10 15 18 21 24 27 28 31 33 35 36 37 40 41 42
24 21 15 18 17 26 22 8 18 31 37 41 25 2 54 50 48 45 42 40 33 25 19 11 4 3 4 4 7 13 17 19 21 23 26 27 30 32 35 36 37 40 42 43
13 17 24 30 29 25 10 7 19 25 33 40 35 49 56 51 49 44 41 35 27 23 17 9 5 6 5 4 11 15 15 17 20 23 24 27 29 31 33 33 36 38 42 45
17 14 5 34 7 14 12 24 22 31 41 45 53 57 55 51 46 40 36 30 24 20 14 10 7 7 5 6 11 11 13 17 20 23 24 25 27 30 30 30 34 37 40 45
4 20 18 24 12 5 7 20 31 35 46 51 58 55 53 47 44 37 31 27 23 20 17 13 7 5 3 6 8 10 16 20 22 24 27 26 24 26 27 27 32 36 39 44
22 21 12 23 23 16 18 28 37 42 47 50 55 51 50 47 40 34 29 25 22 20 18 14 9 4 3 6 7 9 16 19 22 22 27 26 25 26 24 24 28 32 35 40
15 20 23 27 39 33 38 44 49 55 48 42 44 50 46 41 36 32 29 26 23 21 18 14 8 3 3 5 8 11 13 17 20 21 23 25 27 27 29 38 40 31 35 37
9 20 26 24 42 41 44 48 45 45 44 48 41 44 42 40 34 33 29 27 25 23 19 13 9 5 2 4 8 11 14 19 18 21 21 24 25 26 31 30 34 37 40 40
19 29 20 39 30 43 47 46 44 41 41 40 44 40 38 36 36 33 30 28 25 20 16 12 9 6 2 4 6 11 15 20 20 19 20 21 22 25 27 30 34 38 38 44
42 23 27 37 48 47 47 51 49 46 44 41 36 38 36 36 36 33 30 28 23 19 15 12 9 5 1 2 6 11 14 17 20 16 16 21 21 23 26 28 31 35 38 40
29 27 43 53 54 50 50 46 47 45 41 41 39 37 35 33 32 32 31 27 22 18 17 14 10 6 4 3 5 9 13 16 19 13 16 18 20 22 25 27 30 33 37 39
47 40 46 47 52 52 48 42 40 44 43 40 38 38 38 37 35 34 32 28 22 19 18 14 10 7 6 2 4 5 9 13 17 12 13 17 19 22 23 26 28 31 34 37
24 36 45 57 59 53 45 39 40 42 41 39 39 38 36 32 31 34 33 29 23 21 17 13 10 8 8 3 2 5 8 11 11 11 13 16 19 20 22 24 27 30 33 34
22 34 38 44 47 48 46 43 41 41 39 36 37 34 31 32 30 32 32 29 24 20 18 15 11 10 8 4 3 5 8 10 10 12 14 18 18 20 22 24 26 28 31 33
28 32 38 45 44 45 45 44 43 37 36 36 36 37 36 34 32 33 31 25 20 18 17 16 13 12 9 7 4 5 8 10 11 13 15 16 18 20 23 26 27 27 30 32
38 40 42 48 49 47 43 39 37 37 36 35 33 31 30 31 33 33 31 23 25 20 20 17 14 12 8 7 4 7 9 11 13 14 16 18 20 22 24 25 26 27 30 32
44 42 46 48 47 44 39 36 35 32 32 33 32 31 32 33 35 33 29 22 21 20 19 16 14 14 12 6 6 8 9 12 14 16 18 22 24 25 27 27 28 29 31 32
41 40 43 44 44 42 40 35 32 30 29 30 31 30 32 31 32 32 28 31 21 20 17 16 18 15 12 8 9 10 12 15 17 19 23 26 28 30 30 30 31 30 32 33
41 40 41 42 39 37 36 34 32 30 28 28 28 28 33 33 29 24 26 24 25 23 18 18 17 15 13 11 12 14 16 18 21 23 26 31 32 33 34 34 34 34 34 37
38 38 38 38 37 36 33 33 33 32 31 31 31 32 34 26 20 24 23 24 23 22 17 19 16 14 14 13 16 18 19 21 23 29 30 31 34 34 33 33 34 36 45 41
37 37 38 37 34 31 30 30 30 30 31 31 32 34 34 30 27 23 25 23 22 21 17 16 16 15 14 16 18 22 26 27 31 35 41 39 37 39 36 39 42 44 47 50
37 36 36 35 30 28 26 27 26 26 28 28 26 29 29 28 26 23 21 20 18 17 16 15 16 17 18 21 24 29 34 36 44 45 46 46 45 44 45 46 47 47 47 46
Wind_Direction_500mb
257 264 263 240 258 223 217 230 217 243 243 253 251 223 210 201 196 191 189 187 183 177 172 172 179 203 274 315 327 330 333 334 336 340 342 343 343 342 337 336 333 331 332 331
240 249 250 251 253 239 244 244 237 247 256 260 255 210 213 204 194 192 188 186 179 171 165 167 176 181 287 318 326 331 334 335 339 342 345 345 342 341 339 338 336 336 336 334
243 242 251 254 235 245 247 244 239 235 241 252 198 208 210 198 196 190 184 179 171 163 162 164 167 223 290 315 329 336 336 338 343 344 346 344 342 341 339 339 338 339 336 338
247 177 210 241 238 224 237 238 227 238 230 221 222 177 191 200 193 181 175 170 161 158 157 158 182 244 310 329 335 343 340 343 345 347 346 344 342 341 341 339 339 339 335 340
224 224 297 287 231 210 210 244 238 243 239 184 154 126 85 166 173 168 165 160 152 152 152 161 175 258 328 345 355 353 347 346 348 347 345 343 342 342 340 340 340 341 337 340
222 228 233 259 241 199 187 262 225 211 201 177 164 201 148 157 155 152 151 146 146 150 153 154 141 185 44 13 3 353 348 351 350 346 343 342 341 341 340 341 339 340 339 342
222 240 242 249 167 169 196 239 175 194 179 177 187 325 144 148 145 144 142 143 145 144 139 146 154 87 66 47 358 352 357 354 352 348 342 341 341 341 342 341 342 340 342 342
224 231 245 177 163 191 183 112 157 159 156 150 131 131 139 143 141 143 144 144 144 139 137 146 129 99 99 32 359 359 2 359 354 348 349 345 344 344 345 342 344 342 342 341
213 231 43 192 268 202 178 156 155 149 148 147 141 142 145 145 146 147 145 143 143 143 146 135 120 113 98 10 3 8 3 1 354 353 353 350 351 345 346 349 346 342 340 340
259 234 221 215 221 195 235 154 148 155 151 149 143 146 147 149 150 148 146 145 149 143 134 133 137 109 67 6 18 6 1 0 359 358 360 355 356 348 350 347 345 341 340 339
236 236 240 245 217 205 185 142 143 146 149 149 147 149 151 153 151 149 150 155 148 144 144 141 135 111 27 31 38 16 2 2 0 360 359 356 353 345 346 343 345 343 341 340
227 190 206 244 199 185 160 154 149 147 146 147 151 151 152 150 151 153 155 152 148 149 146 143 143 127 71 46 27 18 7 1 0 4 358 353 350 346 340 332 336 341 341 344
236 326 230 185 166 164 155 150 147 146 145 144 149 150 150 149 153 159 157 155 157 159 158 156 155 153 117 44 18 1 11 12 5 2 358 352 346 343 338 338 334 337 336 343
237 169 131 154 160 154 146 141 138 135 142 147 147 148 150 162 169 171 173 175 171 171 172 168 162 161 136 29 351 6 16 9 4 359 354 349 344 340 340 337 337 338 339 340
189 217 191 154 148 144 143 142 140 144 145 144 150 156 166 171 173 176 174 171 172 171 171 169 171 173 160 320 346 15 18 3 1 357 348 351 344 342 341 341 339 338 339 341
177 155 151 151 150 150 152 151 149 149 151 156 161 165 170 173 176 175 174 176 176 176 177 180 186 196 213 263 4 13 3 359 357 357 348 345 343 343 342 343 342 341 342 342
143 150 153 154 157 158 161 161 156 157 160 164 167 171 174 177 178 180 182 180 180 185 187 188 195 209 233 270 44 1 360 349 353 355 343 342 341 341 341 341 340 340 340 336
188 173 171 167 162 158 159 157 160 166 168 170 177 180 184 186 190 186 183 183 187 189 194 197 209 225 240 269 1 338 348 349 347 340 341 335 336 339 338 339 336 335 336 338
156 157 158 159 162 161 161 162 166 170 178 183 182 184 186 189 190 187 187 188 191 198 204 207 221 232 240 256 319 326 333 341 342 333 335 334 332 330 332 332 330 331 332 334
148 154 157 158 162 166 163 169 176 180 181 181 184 189 189 191 193 191 189 190 191 199 214 214 222 232 237 256 293 290 320 334 332 329 325 335 328 331 329 329 328 327 328 330
154 155 159 164 167 173 178 178 184 184 184 188 196 197 197 196 193 192 194 194 210 215 216 220 220 224 232 250 282 285 312 326 327 327 327 326 328 326 327 327 326 326 325 326
160 163 167 171 171 170 175 182 186 190 192 192 195 199 201 197 194 196 196 190 215 216 218 216 220 225 226 241 249 284 302 309 314 315 315 315 315 316 316 317 318 319 320 321
161 162 166 170 174 178 179 183 188 195 201 204 204 204 202 205 203 200 204 213 213 219 214 209 225 237 237 248 259 278 293 302 307 305 306 307 308 306 304 307 307 314 313 314
162 165 169 173 177 181 184 187 191 195 199 203 204 204 205 200 202 197 205 211 220 228 218 218 238 242 240 253 269 278 289 298 302 305 305 305 306 303 299 299 301 305 309 311
171 172 174 176 179 184 191 195 196 198 200 204 206 205 205 202 208 208 207 218 227 225 224 235 240 246 256 260 270 280 288 295 297 304 308 307 306 303 299 296 297 301 307 311
174 178 180 182 187 194 199 198 202 207 208 209 209 208 209 213 216 208 216 222 225 227 218 228 241 251 262 270 281 289 294 298 303 308 310 311 308 309 305 304 305 306 309 312
179 184 186 188 194 199 202 206 213 216 215 214 212 211 210 210 209 213 213 216 218 222 224 232 246 261 272 282 287 293 300 303 307 311 311 312 313 312 311 312 312 314 315 317
Wind_Speed_850mb
36 40 39 24 28 38 45 54 27 43 48 59 37 32 36 41 45 52 55 54 49 41 31 21 15 8 7 15 22 26 22 21 22 25 25 28 30 31 34 35 35 36 38 37
38 51 48 44 45 53 47 49 46 45 54 39 12 18 33 37 46 53 55 52 47 39 31 24 17 9 10 15 19 20 18 20 22 25 26 29 30 32 34 34 36 37 38 39
14 34 31 27 62 52 57 55 41 39 51 30 18 22 30 34 45 53 55 52 46 38 30 22 15 6 6 12 16 15 16 18 20 24 26 29 30 32 35 35 36 37 39 38
9 11 14 23 17 48 52 44 40 34 25 17 19 16 16 26 40 48 52 50 43 36 28 19 10 6 6 10 13 12 14 16 20 24 26 28 31 33 34 36 37 39 41 38
8 15 18 30 21 25 27 53 50 47 37 22 28 26 14 19 37 48 51 45 38 31 25 16 8 2 3 7 8 10 14 17 21 23 27 28 32 34 34 36 38 40 42 41
13 11 16 15 7 31 13 33 25 43 29 26 34 16 12 34 46 51 47 42 37 29 21 13 6 0 3 4 7 10 15 18 21 24 27 28 31 33 35 36 37 40 41 42
24 21 15 18 17 26 22 8 18 31 37 41 25 2 54 50 48 45 42 40 33 25 19 11 4 3 4 4 7 13 17 19 21 23 26 27 30 32 35 36 37 40 42 43
13 17 24 30 29 25 10 7 19 25 33 40 35 49 56 51 49 44 41 35 27 23 17 9 5 6 5 4 11 15 15 17 20 23 24 27 29 31 33 33 36 38 42 45
17 14 5 34 7 14 12 24 22 31 41 45 53 57 55 51 46 40 36 30 24 20 14 10 7 7 5 6 11 11 13 17 20 23 24 25 27 30 30 30 34 37 40 45
4 20 18 24 12 5 7 20 31 35 46 51 58 55 53 47 44 37 31 27 23 20 17 13 7 5 3 6 8 10 16 20 22 24 27 26 24 26 27 27 32 36 39 44
22 21 12 23 23 16 18 28 37 42 47 50 55 51 50 47 40 34 29 25 22 20 18 14 9 4 3 6 7 9 16 19 22 22 27 26 25 26 24 24 28 32 35 40
15 20 23 27 39 33 38 44 49 55 48 42 44 50 46 41 36 32 29 26 23 21 18 14 8 3 3 5 8 11 13 17 20 21 23 25 27 27 29 38 40 31 35 37
9 20 26 24 42 41 44 48 45 45 44 48 41 44 42 40 34 33 29 27 25 23 19 13 9 5 2 4 8 11 14 19 18 21 21 24 25 26 31 30 34 37 40 40
19 29 20 39 30 43 47 46 44 41 41 40 44 40 38 36 36 33 30 28 25 20 16 12 9 6 2 4 6 11 15 20 20 19 20 21 22 25 27 30 34 38 38 44
42 23 27 37 48 47 47 51 49 46 44 41 36 38 36 36 36 33 30 28 23 19 15 12 9 5 1 2 6 11 14 17 20 16 16 21 21 23 26 28 31 35 38 40
29 27 43 53 54 50 50 46 47 45 41 41 39 37 35 33 32 32 31 27 22 18 17 14 10 6 4 3 5 9 13 16 19 13 16 18 20 22 25 27 30 33 37 39
47 40 46 47 52 52 48 42 40 44 43 40 38 38 38 37 35 34 32 28 22 19 18 14 10 7 6 2 4 5 9 13 17 12 13 17 19 22 23 26 28 31 34 37
24 36 45 57 59 53 45 39 40 42 41 39 39 38 36 32 31 34 33 29 23 21 17 13 10 8 8 3 2 5 8 11 11 11 13 16 19 20 22 24 27 30 33 34
22 34 38 44 47 48 46 43 41 41 39 36 37 34 31 32 30 32 32 29 24 20 18 15 11 10 8 4 3 5 8 10 10 12 14 18 18 20 22 24 26 28 31 33
28 32 38 45 44 45 45 44 43 37 36 36 36 37 36 34 32 33 31 25 20 18 17 16 13 12 9 7 4 5 8 10 11 13 15 16 18 20 23 26 27 27 30 32
38 40 42 48 49 47 43 39 37 37 36 35 33 31 30 31 33 33 31 23 25 20 20 17 14 12 8 7 4 7 9 11 13 14 16 18 20 22 24 25 26 27 30 32
44 42 46 48 47 44 39 36 35 32 32 33 32 31 32 33 35 33 29 22 21 20 19 16 14 14 12 6 6 8 9 12 14 16 18 22 24 25 27 27 28 29 31 32
41 40 43 44 44 42 40 35 32 30 29 30 31 30 32 31 32 32 28 31 21 20 17 16 18 15 12 8 9 10 12 15 17 19 23 26 28 30 30 30 31 30 32 33
41 40 41 42 39 37 36 34 32 30 28 28 28 28 33 33 29 24 26 24 25 23 18 18 17 15 13 11 12 14 16 18 21 23 26 31 32 33 34 34 34 34 34 37
38 38 38 38 37 36 33 33 33 32 31 31 31 32 34 26 20 24 23 24 23 22 17 19 16 14 14 13 16 18 19 21 23 29 30 31 34 34 33 33 34 36 45 41
37 37 38 37 34 31 30 30 30 30 31 31 32 34 34 30 27 23 25 23 22 21 17 16 16 15 14 16 18 22 26 27 31 35 41 39 37 39 36 39 42 44 47 50
37 36 36 35 30 28 26 27 26 26 28 28 26 29 29 28 26 23 21 20 18 17 16 15 16 17 18 21 24 29 34 36 44 45 46 46 45 44 45 46 47 47 47 46
Wind_Direction_850mb
257 264 263 240 258 223 217 230 217 243 243 253 251 223 210 201 196 191 189 187 183 177 172 172 179 203 274 315 327 330 333 334 336 340 342 343 343 342 337 336 333 331 332 331
240 249 250 251 253 239 244 244 237 247 256 260 255 210 213 204 194 192 188 186 179 171 165 167 176 181 287 318 326 331 334 335 339 342 345 345 342 341 339 338 336 336 336 334
243 242 251 254 235 245 247 244 239 235 241 252 198 208 210 198 196 190 184 179 171 163 162 164 167 223 290 315 329 336 336 338 343 344 346 344 342 341 339 339 338 339 336 338
247 177 210 241 238 224 237 238 227 238 230 221 222 177 191 200 193 181 175 170 161 158 157 158 182 244 310 329 335 343 340 343 345 347 346 344 342 341 341 339 339 339 335 340
224 224 297 287 231 210 210 244 238 243 239 184 154 126 85 166 173 168 165 160 152 152 152 161 175 258 328 345 355 353 347 346 348 347 345 343 342 342 340 340 340 341 337 340
222 228 233 259 241 199 187 262 225 211 201 177 164 201 148 157 155 152 151 146 146 150 153 154 141 185 44 13 3 353 348 351 350 346 343 342 341 341 340 341 339 340 339 342
222 240 242 249 167 169 196 239 175 194 179 177 187 325 144 148 145 144 142 143 145 144 139 146 154 87 66 47 358 352 357 354 352 348 342 341 341 341 342 341 342 340 342 342
224 231 245 177 163 191 183 112 157 159 156 150 131 131 139 143 141 143 144 144 144 139 137 146 129 99 99 32 359 359 2 359 354 348 349 345 344 344 345 342 344 342 342 341
213 231 43 192 268 202 178 156 155 149 148 147 141 142 145 145 146 147 145 143 143 143 146 135 120 113 98 10 3 8 3 1 354 353 353 350 351 345 346 349 346 342 340 340
259 234 221 215 221 195 235 154 148 155 151 149 143 146 147 149 150 148 146 145 149 143 134 133 137 109 67 6 18 6 1 0 359 358 360 355 356 348 350 347 345 341 340 339
236 236 240 245 217 205 185 142 143 146 149 149 147 149 151 153 151 149 150 155 148 144 144 141 135 111 27 31 38 16 2 2 0 360 359 356 353 345 346 343 345 343 341 340
227 190 206 244 199 185 160 154 149 147 146 147 151 151 152 150 151 153 155 152 148 149 146 143 143 127 71 46 27 18 7 1 0 4 358 353 350 346 340 332 336 341 341 344
236 326 230 185 166 164 155 150 147 146 145 144 149 150 150 149 153 159 157 155 157 159 158 156 155 153 117 44 18 1 11 12 5 2 358 352 346 343 338 338 334 337 336 343
237 169 131 154 160 154 146 141 138 135 142 147 147 148 150 162 169 171 173 175 171 171 172 168 162 161 136 29 351 6 16 9 4 359 354 349 344 340 340 337 337 338 339 340
189 217 191 154 148 144 143 142 140 144 145 144 150 156 166 171 173 176 174 171 172 171 171 169 171 173 160 320 346 15 18 3 1 357 348 351 344 342 341 341 339 338 339 341
177 155 151 151 150 150 152 151 149 149 151 156 161 165 170 173 176 175 174 176 176 176 177 180 186 196 213 263 4 13 3 359 357 357 348 345 343 343 342 343 342 341 342 342
143 150 153 154 157 158 161 161 156 157 160 164 167 171 174 177 178 180 182 180 180 185 187 188 195 209 233 270 44 1 360 349 353 355 343 342 341 341 341 341 340 340 340 336
188 173 171 167 162 158 159 157 160 166 168 170 177 180 184 186 190 186 183 183 187 189 194 197 209 225 240 269 1 338 348 349 347 340 341 335 336 339 338 339 336 335 336 338
156 157 158 159 162 161 161 162 166 170 178 183 182 184 186 189 190 187 187 188 191 198 204 207 221 232 240 256 319 326 333 341 342 333 335 334 332 330 332 332 330 331 332 334
148 154 157 158 162 166 163 169 176 180 181 181 184 189 189 191 193 191 189 190 191 199 214 214 222 232 237 256 293 290 320 334 332 329 325 335 328 331 329 329 328 327 328 330
154 155 159 164 167 173 178 178 184 184 184 188 196 197 197 196 193 192 194 194 210 215 216 220 220 224 232 250 282 285 312 326 327 327 327 326 328 326 327 327 326 326 325 326
160 163 167 171 171 170 175 182 186 190 192 192 195 199 201 197 194 196 196 190 215 216 218 216 220 225 226 241 249 284 302 309 314 315 315 315 315 316 316 317 318 319 320 321
161 162 166 170 174 178 179 183 188 195 201 204 204 204 202 205 203 200 204 213 213 219 214 209 225 237 237 248 259 278 293 302 307 305 306 307 308 306 304 307 307 314 313 314
162 165 169 173 177 181 184 187 191 195 199 203 204 204 205 200 202 197 205 211 220 228 218 218 238 242 240 253 269 278 289 298 302 305 305 305 306 303 299 299 301 305 309 311
171 172 174 176 179 184 191 195 196 198 200 204 206 205 205 202 208 208 207 218 227 225 224 235 240 246 256 260 270 280 288 295 297 304 308 307 306 303 299 296 297 301 307 311
174 178 180 182 187 194 199 198 202 207 208 209 209 208 209 213 216 208 216 222 225 227 218 228 241 251 262 270 281 289 294 298 303 308 310 311 308 309 305 304 305 306 309 312
179 184 186 188 194 199 202 206 213 216 215 214 212 211 210 210 209 213 213 216 218 222 224 232 246 261 272 282 287 293 300 303 307 311 311 312 313 312 311 312 312 314 315 317